Regional Weather Roundup
Issued by NWS Jackson, KY

Home | Current Version | Previous Version | Text Only | Print | Product List | Glossary Off
Versions: 1 2 3 4 5 6 7 8 9 10 11 12 13 14 15 16 17 18 19 20 21 22 23 24 25 26 27 28 29 30 31 32 33 34 35 36 37 38 39 40 41 42 43 44 45 46 47 48 49 50

000
ASUS43 KJKL 301911
RWRJKL

EAST KENTUCKY HOURLY WEATHER ROUNDUP
NATIONAL WEATHER SERVICE JACKSON KY
300 PM EDT SAT AUG 30 2014

NOTE: "FAIR" INDICATES FEW OR NO CLOUDS BELOW 12,000 FEET WITH
NO SIGNIFICANT WEATHER AND/OR OBSTRUCTIONS TO VISIBILITY.

* THESE REPORTS ARE NOT UNDER NWS QUALITY CONTROL AND MAY NOT
  REPORT WEATHER SUCH AS PRECIPITATION AND FOG.

KYZ079-080-083-085-087-088-110-112-115-119-120-302000
...EASTERN KENTUCKY...

CITY           SKY/WX    TMP DP  RH WIND       PRES   REMARKS
JACKSON        MOSUNNY   86  67  52 VRB5      30.13F
LONDON         PTSUNNY   89  64  43 SW9       30.12F HX  90
SOMERSET*      PTSUNNY   84  64  51 SW6       30.11F
MONTICELLO*    CLOUDY    86  72  62 CALM      30.12F HX  92
WILLIAMSBURG*  MOSUNNY   86  68  54 SW7       30.12F
MIDDLESBORO*   PTSUNNY   87  67  51 SW5       30.13F HX  90
HARLAN APT*    PTCLDY    88  61  40 MISG      30.14F
HAZARD APT*    MOCLDY    88  66  48 SW5       30.12F HX  90
BLACK MTN*       N/A     73  64  73 E1          N/A
PIKEVILLE APT* MOSUNNY   86  66  51 S5        30.14
BIG SANDY*     MOCLDY    88  68  51 SW7       30.12F HX  91
MOREHEAD APT*  PTCLDY    88  66  48 SW14      30.11F HX  90
$$

KYZ035-036-041-042-044-050-067-078-099-302000
...CENTRAL KENTUCKY...

CITY           SKY/WX    TMP DP  RH WIND       PRES   REMARKS
MT STERLING*   MOSUNNY   88  68  51 SW9       30.10F HX  91
FLEMING/MASON* PTSUNNY   86  68  54 SW9G17    30.08F
DANVILLE*      PTSUNNY   86  66  51 SW7       30.10F
RICHMOND*      PTSUNNY   88  64  45 S10       30.10S
LEXINGTON      PTSUNNY   88  67  49 SW9       30.08F HX  91
FRANKFORT      PTSUNNY   86  67  52 S12       30.05F
$$

KYZ091>093-OHZ055-061-077-WVZ005-015-034-035-042-302000
...SOUTHERN OHIO/WEST VIRGINIA...

CITY           SKY/WX    TMP DP  RH WIND       PRES   REMARKS
COVINGTON      PTSUNNY   85  66  53 SW7       30.06S
COLUMBUS       PTSUNNY   93  63  36 SW17G25   30.03F HX  94
DAYTON         CLOUDY    79  68  69 SW12      30.07R
WILMINGTON     MOSUNNY   87  66  49 SW13      30.05F
HUNTINGTON     MOSUNNY   86  68  54 S8        30.08F
CHARLESTON     MOSUNNY   89  64  43 SW12      30.10F HX  90
PINEVILLE*     MOSUNNY   91  69  48 MISG      30.21F HX  95
BECKLEY        PTSUNNY   83  60  45 S8        30.22F
BLUEFIELD      PTSUNNY   82  61  48 SW6       30.25F
$$

VAZ002-007-008-TNZ017-027-036-066-071-302000
...SOUTHWEST VIRGINIA/EAST TENNESSEE...

CITY           SKY/WX    TMP DP  RH WIND       PRES   REMARKS
WISE*          PTSUNNY   82  59  44 S6        30.24F
JONESVILLE*      N/A     88  64  45 S6        30.16F
ABINGDON*      MOSUNNY   88  58  36 SW5       30.19F
BRISTOL        PTSUNNY   91  59  33 CALM      30.15F HX  90
KNOXVILLE      CLOUDY    89  69  51 VRB7      30.09F HX  93
OAK RIDGE      CLOUDY    88  68  51 VRB3      30.13F HX  91
CROSSVILLE     CLOUDY    80  66  62 S6        30.16F
NASHVILLE      CLOUDY    84  71  65 NW3       30.07F
$$

...KEY TO REMARKS...
VSB - VISIBILITY IN MILES
WCI - WIND CHILL INDEX
HX  - HEAT INDEX

$$


USA.gov is the U.S. government's official web portal to all federal, state and local government web resources and services.